Temp
47 47 48 50 53 56 57 58 59 60 62 62 63 63 63 63 63 63 62 62 61 61 61 60 60 61 60 60 60 59 58 57 54 57 56 50 45 44 41 42 41 42 42
43 44 45 47 49 51 53 56 57 56 58 60 61 61 61 61 62 62 62 61 60 60 60 60 60 60 59 60 60 58 58 59 56 54 55 42 43 41 40 39 39 40 40
40 40 41 43 45 45 47 51 53 54 55 57 57 58 59 60 61 61 61 61 61 60 61 60 60 59 58 59 58 58 58 57 57 55 54 38 36 37 35 35 36 36 38
38 38 38 41 41 39 41 44 46 49 50 53 54 55 56 58 58 59 60 60 60 60 60 60 59 59 58 58 57 57 57 56 55 53 46 39 35 33 34 33 32 33 33
36 36 37 40 40 39 38 39 40 42 44 47 48 50 51 52 53 50 55 58 58 58 58 58 58 55 48 53 57 56 55 53 50 42 39 36 33 32 34 33 33 32 32
33 34 35 37 36 36 37 37 38 38 41 41 43 44 44 47 44 42 42 47 50 51 54 53 53 42 45 43 45 46 51 53 43 42 38 37 35 34 33 33 32 32 33
31 32 31 33 30 32 34 36 36 38 40 41 41 42 42 42 42 42 40 42 45 48 47 46 43 40 39 41 41 41 40 43 45 44 37 37 35 35 34 33 32 33 33
27 28 27 26 26 28 30 33 35 37 38 39 40 42 41 41 41 41 40 41 42 42 42 42 41 39 39 38 38 36 35 35 37 37 37 36 36 36 37 34 34 32 31
24 23 23 23 24 25 26 30 33 34 36 37 38 38 37 37 40 40 40 37 36 37 37 37 39 37 38 39 35 34 33 33 38 39 39 40 39 39 37 34 33 33 29
20 20 21 22 22 22 24 27 31 34 34 35 35 36 35 35 37 39 39 35 34 34 34 35 34 37 38 39 35 34 33 33 33 34 34 36 37 37 37 34 35 33 30
18 18 19 20 19 21 23 27 29 33 34 34 35 35 34 34 35 38 40 35 35 34 34 33 33 38 39 39 38 34 35 34 35 33 33 32 32 32 32 33 33 34 31
15 14 14 15 17 20 20 24 29 32 33 33 34 34 34 33 34 37 39 39 38 34 34 33 33 38 39 39 36 37 37 34 33 32 32 31 31 31 31 31 32 32 32
10 10 12 14 17 19 20 24 28 32 33 33 33 34 34 32 33 36 38 38 38 34 33 34 36 38 38 37 38 38 33 33 32 32 31 29 29 30 30 30 30 31 31
8 10 12 15 16 19 22 26 29 31 32 33 33 33 33 32 32 33 33 33 34 34 35 35 35 34 35 34 33 33 32 32 32 31 29 28 29 29 29 29 28 28 28
10 11 13 15 16 18 23 26 30 29 29 30 31 33 33 32 32 33 33 32 32 33 33 32 31 30 29 29 29 30 30 30 29 28 28 27 27 27 27 28 28 27 25
9 12 13 14 16 18 20 27 30 30 29 29 30 33 32 33 33 33 34 33 33 33 31 29 28 28 27 27 27 27 28 28 28 28 27 27 26 26 26 26 26 25 25
8 11 12 13 14 15 18 18 17 21 25 26 26 28 30 33 33 34 32 30 31 29 26 25 24 24 24 24 25 24 23 24 27 27 27 26 26 26 25 24 25 24 23
8 11 11 12 13 14 14 14 14 13 13 16 21 22 25 26 26 26 26 23 18 19 17 17 17 18 18 19 21 22 23 24 24 25 25 25 25 24 23 23 24 22 21
8 9 10 11 12 12 12 12 12 12 11 12 15 16 15 21 21 20 19 12 11 11 12 12 13 13 14 15 16 17 18 18 19 19 20 20 20 21 21 21 21 22 20
6 10 9 9 10 10 10 9 9 9 9 8 10 12 11 11 8 8 9 8 8 8 8 9 9 10 10 10 11 12 13 14 14 14 14 15 15 16 17 16 17 17 17
6 7 8 7 7 7 7 7 7 7 6 6 6 12 16 7 6 6 6 6 5 6 6 6 7 7 7 7 8 9 9 10 10 11 11 12 12 12 13 14 14 15 14
5 5 6 5 6 5 5 5 5 5 4 4 5 6 12 5 5 4 4 4 4 5 5 5 5 5 5 5 4 5 5 6 6 6 7 8 8 9 9 10 10 11 11
3 3 3 3 3 4 3 3 3 2 2 2 2 2 2 2 3 2 2 3 3 3 3 3 3 2 3 3 4 3 2 2 3 4 4 5 5 6 6 6 7 7 8
-0 0 1 0 1 1 1 0 1 1 1 1 0 0 0 1 1 1 1 2 1 1 2 2 2 0 1 0 1 2 2 3 5 4 3 3 3 4 4 4 4 4 5
-5 -3 -2 -3 -3 -3 -3 -2 -2 -2 -2 -2 -2 -2 -2 -1 -1 -1 -1 -0 -1 -2 -1 -1 -1 -1 -2 -2 -1 -1 2 2 3 4 4 3 2 1 1 1 2 2 2
-9 -10 -9 -6 -6 -6 -6 -6 -6 -5 -6 -5 -5 -5 -5 -5 -4 -4 -3 -4 -5 -4 -4 -3 -4 -4 -4 -3 -3 1 1 3 3 6 5 3 0 -0 -0 -1 -0 -0 0
MSLP
1017.17 1016.67 1015.84 1015.00 1014.07 1013.06 1012.46 1011.73 1011.08 1010.32 1009.65 1009.17 1008.79 1008.59 1008.41 1008.43 1008.46 1008.49 1008.47 1008.60 1008.70 1008.80 1008.95 1009.06 1009.14 1009.45 1009.61 1009.77 1009.94 1010.07 1010.23 1010.42 1009.98 1009.71 1010.13 1010.37 1010.96 1011.26 1011.78 1012.15 1012.38 1012.71 1013.01
1018.09 1017.61 1016.84 1015.98 1015.02 1014.02 1013.07 1012.12 1011.22 1010.60 1009.84 1009.07 1008.45 1008.07 1007.84 1007.65 1007.59 1007.53 1007.50 1007.57 1007.62 1007.64 1007.72 1007.89 1007.85 1008.19 1008.21 1008.37 1008.55 1008.65 1008.83 1009.09 1009.22 1008.95 1009.44 1010.35 1010.85 1011.42 1011.39 1012.06 1012.39 1012.50 1012.96
1018.62 1018.01 1017.28 1016.59 1015.79 1015.27 1014.15 1012.97 1011.92 1010.99 1010.12 1009.16 1008.40 1007.85 1007.47 1007.11 1006.79 1006.58 1006.53 1006.58 1006.61 1006.58 1006.55 1006.65 1006.73 1007.11 1007.18 1007.33 1007.44 1007.53 1007.72 1007.83 1008.05 1008.33 1008.91 1009.97 1010.93 1011.17 1011.31 1011.89 1012.21 1012.61 1012.99
1019.09 1018.54 1017.73 1016.98 1016.49 1015.93 1015.00 1013.80 1012.73 1011.61 1010.54 1009.67 1008.81 1008.16 1007.57 1007.03 1006.61 1006.30 1006.10 1005.91 1005.85 1005.75 1005.73 1005.74 1005.78 1006.08 1006.17 1006.37 1006.52 1006.55 1006.76 1006.95 1007.17 1007.43 1008.40 1009.63 1010.55 1011.19 1011.38 1011.74 1012.53 1012.64 1013.32
1019.55 1019.06 1018.42 1017.59 1017.09 1016.22 1015.36 1014.49 1013.44 1012.34 1010.98 1010.13 1009.29 1008.32 1007.67 1007.31 1006.94 1006.72 1006.09 1005.58 1005.45 1005.29 1005.13 1005.11 1005.17 1005.23 1005.32 1005.43 1005.48 1005.65 1005.90 1006.11 1006.51 1006.97 1007.91 1009.07 1010.03 1010.80 1011.23 1011.38 1011.81 1012.66 1013.02
1020.14 1019.42 1018.82 1018.21 1017.46 1016.69 1015.59 1014.71 1013.66 1012.64 1011.30 1010.43 1009.52 1008.86 1008.05 1007.24 1006.99 1006.93 1006.69 1006.15 1005.62 1005.25 1005.01 1004.88 1004.81 1004.96 1004.89 1005.21 1005.00 1005.09 1005.10 1005.31 1005.89 1006.72 1007.31 1008.19 1008.76 1009.36 1010.13 1010.47 1011.48 1012.51 1012.67
1020.73 1020.08 1019.34 1018.68 1018.11 1016.98 1015.84 1014.86 1013.69 1012.63 1011.47 1010.60 1009.72 1008.92 1008.31 1007.71 1007.03 1006.79 1006.63 1006.23 1005.77 1005.39 1005.09 1005.02 1005.00 1005.14 1005.19 1005.27 1005.29 1005.28 1005.29 1005.15 1005.23 1005.68 1006.54 1007.19 1007.64 1008.13 1009.07 1010.18 1010.62 1010.99 1011.42
1021.42 1020.74 1019.99 1019.26 1018.57 1017.48 1016.21 1014.84 1013.49 1012.29 1011.49 1010.45 1009.45 1008.64 1007.98 1007.48 1006.99 1006.67 1006.42 1005.95 1005.49 1005.24 1005.02 1004.83 1004.83 1005.06 1005.15 1005.26 1005.35 1005.49 1005.72 1005.83 1005.63 1005.62 1005.77 1006.23 1006.53 1007.29 1007.64 1008.44 1009.36 1010.46 1011.29
1022.03 1021.52 1020.80 1019.99 1018.69 1017.52 1016.21 1014.71 1013.50 1012.24 1011.21 1010.21 1009.25 1008.54 1007.94 1007.35 1006.97 1006.66 1006.39 1006.11 1005.59 1005.14 1005.01 1004.80 1004.64 1004.79 1004.85 1005.13 1005.32 1005.68 1005.91 1006.14 1005.84 1005.88 1006.08 1006.15 1006.62 1007.23 1007.59 1008.33 1009.54 1010.13 1011.24
1022.87 1022.06 1021.28 1020.31 1019.03 1017.76 1016.40 1014.86 1013.17 1011.94 1010.74 1009.90 1008.89 1008.20 1007.57 1007.21 1006.80 1006.43 1006.11 1005.98 1005.72 1005.38 1005.13 1004.87 1004.73 1004.61 1004.64 1004.88 1005.10 1005.38 1005.85 1006.14 1006.21 1006.41 1006.57 1006.91 1007.20 1007.61 1007.84 1008.01 1008.59 1009.31 1010.29
1023.56 1022.69 1021.54 1020.30 1019.09 1017.90 1016.11 1014.58 1012.92 1011.28 1010.13 1009.28 1008.42 1007.52 1007.00 1006.77 1006.47 1006.08 1005.72 1005.62 1005.42 1005.11 1004.96 1004.82 1004.57 1004.36 1004.37 1004.59 1004.86 1005.12 1005.26 1005.90 1006.34 1006.67 1007.02 1007.44 1007.68 1007.99 1008.29 1008.51 1008.81 1009.03 1009.58
1023.64 1022.71 1021.63 1020.38 1019.15 1017.57 1016.03 1014.06 1012.52 1010.87 1009.43 1008.53 1007.74 1006.92 1006.37 1006.06 1006.11 1005.82 1005.47 1005.16 1005.07 1005.01 1004.70 1004.48 1004.37 1004.24 1004.33 1004.42 1004.73 1004.94 1005.23 1005.87 1006.42 1006.89 1007.39 1007.76 1008.13 1008.26 1008.70 1009.05 1009.35 1009.53 1009.57
1023.95 1022.61 1021.40 1020.21 1018.69 1017.08 1015.47 1013.49 1011.85 1010.46 1009.16 1008.04 1007.34 1006.53 1005.81 1005.55 1005.59 1005.45 1005.14 1004.87 1004.67 1004.67 1004.50 1004.36 1004.34 1004.25 1004.39 1004.49 1004.61 1004.96 1005.47 1005.87 1006.31 1006.86 1007.33 1007.89 1008.28 1008.54 1008.97 1009.45 1009.78 1010.00 1010.26
1023.74 1022.27 1020.94 1019.71 1018.15 1016.55 1015.02 1013.27 1011.54 1010.14 1008.87 1008.00 1007.20 1006.38 1005.64 1005.38 1005.31 1005.27 1005.14 1004.77 1004.58 1004.56 1004.47 1004.43 1004.58 1004.70 1004.86 1004.84 1005.03 1005.42 1005.60 1005.83 1006.24 1006.82 1007.53 1008.16 1008.59 1008.92 1009.27 1009.56 1010.16 1010.51 1010.79
1023.60 1022.22 1020.82 1019.58 1018.18 1016.25 1014.50 1012.85 1011.15 1010.71 1009.83 1008.71 1007.39 1006.35 1005.69 1005.16 1004.98 1005.11 1005.30 1005.34 1005.01 1004.73 1004.74 1004.93 1005.23 1005.51 1005.72 1005.70 1005.63 1005.95 1006.03 1006.28 1006.78 1007.28 1007.93 1008.51 1009.12 1009.27 1009.75 1009.90 1010.26 1010.92 1011.23
1023.53 1022.04 1021.21 1020.03 1018.49 1016.76 1014.91 1012.73 1011.88 1011.33 1010.73 1009.92 1008.71 1006.81 1005.90 1005.41 1005.12 1005.01 1005.42 1005.53 1005.42 1005.43 1005.45 1005.98 1006.43 1006.62 1006.91 1006.76 1006.66 1006.74 1006.67 1007.02 1007.44 1007.84 1008.34 1008.82 1009.47 1009.69 1010.15 1010.50 1010.78 1011.09 1011.57
1024.06 1022.51 1021.84 1020.74 1019.35 1017.88 1016.18 1014.98 1013.73 1012.48 1011.84 1011.17 1010.32 1009.08 1007.72 1006.52 1005.96 1005.78 1006.23 1006.57 1006.56 1006.24 1006.86 1007.50 1007.86 1008.22 1008.21 1008.35 1008.15 1007.93 1008.23 1008.25 1008.20 1008.45 1008.66 1009.19 1009.55 1010.05 1010.46 1011.02 1011.06 1011.37 1011.74
1024.51 1023.36 1022.50 1021.65 1020.47 1019.22 1018.03 1016.87 1015.94 1014.97 1013.93 1012.82 1012.11 1011.72 1010.35 1009.27 1008.51 1008.15 1008.07 1007.81 1008.68 1009.01 1009.40 1009.69 1009.73 1010.14 1010.51 1010.23 1009.99 1009.71 1009.52 1009.43 1009.46 1009.67 1009.72 1009.89 1010.37 1010.83 1011.17 1011.47 1011.50 1011.67 1011.94
1024.82 1023.93 1023.25 1022.44 1021.59 1020.65 1019.54 1018.49 1017.64 1016.93 1016.08 1015.25 1014.01 1013.07 1012.83 1011.95 1010.67 1010.82 1011.00 1011.27 1011.93 1011.95 1011.92 1011.93 1012.17 1011.78 1011.88 1011.73 1011.78 1011.56 1011.29 1011.25 1011.11 1010.85 1010.88 1011.33 1011.57 1011.70 1011.93 1012.01 1012.10 1012.12 1012.31
1025.35 1024.48 1023.51 1023.50 1022.84 1021.77 1020.77 1020.05 1019.40 1018.81 1018.10 1017.37 1016.58 1015.93 1015.25 1014.00 1013.55 1013.86 1014.07 1014.17 1014.22 1014.50 1014.43 1014.18 1014.01 1013.86 1013.73 1013.81 1013.74 1013.27 1012.82 1012.75 1012.52 1012.53 1012.49 1012.68 1012.83 1012.76 1012.85 1012.88 1012.83 1012.92 1012.89
1026.28 1025.34 1024.25 1024.96 1024.11 1023.03 1022.26 1021.58 1021.10 1020.59 1020.01 1019.49 1019.12 1018.01 1017.25 1016.81 1016.80 1016.57 1016.49 1016.47 1016.41 1016.36 1016.39 1016.15 1015.74 1015.50 1015.48 1015.18 1014.98 1014.86 1014.65 1014.14 1014.01 1014.02 1013.91 1013.70 1013.81 1013.93 1013.92 1013.81 1013.64 1013.55 1013.59
1026.96 1026.61 1025.68 1025.81 1025.44 1024.32 1023.51 1023.02 1022.49 1021.99 1021.53 1021.05 1020.62 1020.13 1019.15 1018.84 1018.54 1018.29 1018.18 1018.09 1018.03 1017.82 1017.58 1017.50 1017.16 1016.97 1016.86 1016.67 1016.29 1016.01 1015.64 1015.50 1015.41 1015.39 1015.04 1014.82 1014.57 1014.64 1014.63 1014.34 1014.21 1014.08 1014.06
1027.77 1027.33 1027.04 1026.50 1026.18 1025.73 1024.67 1024.09 1023.69 1023.27 1022.78 1022.31 1021.89 1021.41 1020.78 1020.46 1020.13 1019.85 1019.66 1019.48 1019.29 1019.04 1018.79 1018.46 1018.25 1018.03 1017.81 1017.59 1017.36 1017.10 1016.89 1016.58 1016.38 1016.42 1015.88 1015.43 1015.45 1015.19 1014.99 1014.85 1014.70 1014.65 1014.49
1028.80 1028.22 1027.88 1027.51 1026.98 1026.47 1025.93 1025.17 1024.73 1024.32 1023.79 1023.35 1022.84 1022.39 1022.04 1021.72 1021.34 1021.03 1020.76 1020.48 1020.27 1019.94 1019.60 1019.28 1019.02 1018.92 1018.68 1018.40 1017.97 1017.65 1017.41 1016.98 1016.53 1016.56 1016.37 1015.80 1015.69 1015.72 1015.53 1015.14 1015.01 1014.91 1014.81
1029.36 1029.02 1028.53 1028.24 1027.85 1027.37 1026.67 1026.15 1025.65 1025.18 1024.65 1024.10 1023.74 1023.34 1023.12 1022.65 1022.25 1021.97 1021.54 1021.29 1021.08 1020.64 1020.24 1020.01 1019.65 1019.40 1019.15 1018.85 1018.45 1018.09 1017.65 1017.28 1017.00 1016.49 1016.08 1015.85 1015.83 1015.85 1015.55 1015.33 1015.16 1015.04 1014.89
1030.06 1029.62 1029.19 1028.82 1028.46 1028.03 1027.58 1027.00 1026.50 1025.94 1025.48 1025.03 1024.65 1024.28 1023.88 1023.42 1023.05 1022.52 1022.05 1021.90 1021.61 1021.13 1020.71 1020.37 1020.06 1019.77 1019.39 1018.98 1018.62 1018.12 1017.71 1017.08 1016.44 1015.86 1015.65 1015.66 1015.83 1015.70 1015.53 1015.28 1015.03 1015.02 1014.91
Wind_Speed
16 16 16 16 15 13 11 10 10 11 11 11 13 13 14 14 15 16 16 16 17 16 16 15 16 16 12 11 11 11 12 11 14 11 6 4 5 4 3 3 4 3 3
13 14 15 15 16 16 15 15 13 12 11 11 11 11 12 13 13 15 16 14 16 17 17 16 17 12 15 15 12 14 13 13 11 17 8 4 4 1 4 3 2 2 3
14 14 13 14 15 17 18 17 16 15 13 11 9 9 10 11 12 13 14 15 16 17 17 16 16 15 14 11 12 12 11 11 11 11 10 1 1 3 2 3 3 2 1
13 13 13 16 17 16 18 18 17 15 14 12 9 9 8 7 7 8 10 12 13 13 14 14 14 14 15 15 13 14 12 11 10 9 3 2 2 1 3 2 2 1 1
13 13 14 15 16 16 18 19 17 17 14 12 12 9 7 7 5 7 7 10 11 12 11 11 13 14 15 16 11 12 11 10 7 4 3 2 3 3 5 3 2 2 2
14 13 14 15 17 16 16 19 19 18 16 13 13 13 11 6 5 7 6 6 7 6 9 8 9 7 9 10 13 12 9 11 6 5 4 5 6 5 4 4 4 4 4
14 14 14 15 17 16 17 17 17 16 16 16 15 13 13 11 9 10 10 6 7 8 7 6 5 3 4 4 6 8 6 5 4 7 6 6 5 8 7 5 4 3 3
14 14 16 17 17 17 17 16 16 14 14 14 16 14 12 9 12 12 12 7 6 6 6 6 6 6 6 6 5 5 4 2 2 3 4 6 4 8 9 5 6 6 4
14 16 17 18 19 19 18 17 16 15 14 13 12 12 10 9 13 13 10 6 6 7 5 5 5 6 8 10 6 6 4 1 4 7 7 9 11 14 11 9 6 7 2
17 18 17 18 18 19 19 18 15 14 15 12 12 11 10 10 11 12 10 3 6 4 4 5 6 6 10 13 7 8 7 5 6 5 5 8 7 9 10 1 8 8 4
16 18 18 18 18 18 19 17 17 15 14 13 13 10 8 7 9 13 13 5 6 5 4 3 3 9 10 12 9 6 6 8 8 6 5 4 4 4 3 3 3 4 3
17 17 17 18 16 15 18 17 17 15 14 13 12 9 6 5 8 11 13 13 9 6 5 3 3 9 9 10 8 8 15 10 5 5 5 4 4 4 4 4 5 5 4
16 16 16 17 16 16 16 17 14 13 11 11 9 8 7 4 4 11 12 12 11 4 2 5 7 8 8 7 10 14 10 6 6 6 6 3 2 4 6 5 6 6 7
16 16 16 16 16 16 13 13 11 10 10 9 9 9 7 4 4 4 4 4 5 4 5 4 4 6 6 6 7 6 4 4 4 5 4 4 4 3 4 3 3 2 3
14 14 15 13 15 15 14 12 7 7 13 9 9 7 7 5 4 3 3 3 3 1 3 3 3 2 2 3 4 3 4 4 4 3 5 4 4 4 3 2 3 2 1
13 12 13 13 13 12 12 10 9 14 22 28 31 18 4 5 2 1 3 4 4 6 4 4 4 4 3 3 4 4 5 6 4 5 5 5 4 4 4 2 2 2 1
12 13 12 13 12 12 12 11 10 12 19 25 29 31 32 24 20 19 21 24 21 16 8 8 7 7 6 6 5 6 4 4 4 4 4 4 4 4 4 1 2 2 2
12 14 10 11 11 11 11 10 9 10 11 12 19 24 27 30 31 30 23 21 11 14 10 9 8 8 8 8 7 6 5 5 4 4 4 4 4 2 2 1 1 2 2
10 9 10 10 10 11 10 10 10 10 11 11 11 19 21 25 31 32 29 13 10 11 10 10 9 9 8 7 8 7 7 7 6 5 6 6 5 3 3 3 2 2 3
8 14 13 10 9 10 10 10 10 10 11 11 11 12 12 14 15 13 12 11 11 10 9 9 9 8 8 8 8 7 6 7 7 7 6 5 5 4 3 3 3 2 1
8 9 13 9 9 9 9 9 9 9 9 9 10 14 24 11 10 10 10 10 9 8 8 8 7 7 7 7 7 7 7 6 6 6 6 5 5 5 4 3 3 2 1
7 8 8 8 8 8 8 8 8 8 9 9 9 11 22 9 9 9 9 9 8 8 7 7 7 7 7 7 7 7 6 6 6 6 5 5 4 4 4 4 3 3 2
7 7 7 7 7 10 8 8 8 8 8 8 8 8 9 8 8 8 8 7 7 7 7 7 6 6 6 6 6 6 6 5 5 5 5 4 4 4 3 3 3 4 3
6 6 7 7 6 7 7 7 7 9 8 8 8 7 8 7 7 8 7 7 7 7 6 6 6 8 7 7 6 5 5 5 4 5 6 4 4 5 4 3 3 4 4
4 5 5 6 6 6 7 7 7 7 7 7 7 7 7 7 7 7 6 6 6 7 7 7 6 8 8 10 9 9 10 11 9 9 5 4 5 6 4 4 4 4 5
4 3 3 4 5 5 6 6 6 6 7 7 6 6 6 6 6 6 6 6 7 7 7 6 7 9 9 7 7 11 12 13 10 11 4 3 3 4 3 4 5 4 6
Wind_Direction
357 345 340 337 333 330 324 316 307 300 283 256 247 240 234 231 228 228 228 227 223 225 225 226 228 227 229 226 225 223 227 225 245 252 236 188 191 166 156 146 149 170 185
351 342 340 338 339 338 333 327 329 318 304 279 260 249 242 236 232 231 232 226 228 225 225 226 229 228 227 226 227 226 227 227 237 253 239 196 200 305 125 120 172 191 177
347 343 343 343 344 340 333 329 328 325 320 313 285 266 258 247 240 233 230 231 230 230 229 228 229 225 228 229 229 230 229 226 229 239 244 69 83 123 45 108 156 147 192
343 342 343 341 343 336 331 331 328 325 318 316 314 314 310 298 267 249 238 236 236 235 235 233 231 231 231 231 231 231 234 236 230 233 234 170 154 85 90 152 176 143 172
338 340 338 332 335 332 331 328 324 318 314 309 309 304 303 304 315 319 287 246 236 239 237 233 233 232 235 234 230 236 230 235 229 202 164 157 153 150 192 165 114 113 211
334 336 334 329 332 327 326 325 323 320 316 312 311 308 305 294 300 307 299 292 291 278 257 240 238 249 251 255 246 251 231 221 203 195 162 189 182 181 158 149 130 165 207
331 332 333 329 323 321 320 317 316 313 315 310 306 304 298 296 296 296 290 272 270 270 260 253 251 237 217 177 114 102 101 112 183 184 175 195 159 175 142 148 173 149 164
330 334 332 327 318 316 314 310 310 309 305 302 301 297 294 292 286 281 285 277 268 263 262 247 225 220 212 191 163 138 121 74 132 178 170 176 162 163 165 158 146 110 79
336 333 326 321 316 316 310 309 306 301 299 294 289 287 281 282 282 275 279 278 267 258 261 260 235 215 197 191 163 147 122 79 77 107 124 131 148 155 145 126 148 147 132
334 326 319 313 311 308 304 301 300 293 292 291 284 276 271 276 279 277 275 260 268 257 257 258 243 219 193 188 171 164 161 173 138 111 96 105 111 139 144 77 156 161 130
323 318 313 311 308 300 299 299 298 294 292 287 281 275 264 262 277 279 276 257 250 245 236 243 238 215 199 195 183 180 182 144 145 123 116 110 100 91 78 77 84 137 130
324 316 311 309 304 301 298 297 293 292 293 288 282 278 261 254 263 275 278 272 255 240 237 225 227 206 202 201 177 169 151 135 135 132 130 123 120 108 86 80 79 72 54
320 315 311 309 304 303 299 296 293 294 290 290 284 280 276 246 247 271 278 278 268 240 229 218 205 185 177 169 171 155 138 143 146 147 147 122 98 105 104 90 80 79 67
319 320 319 316 314 309 305 294 292 296 298 296 289 283 278 255 243 261 282 293 264 231 197 173 141 110 97 101 115 118 112 120 136 131 110 100 104 107 115 98 94 93 89
324 325 328 323 318 314 308 302 331 30 13 354 311 284 281 262 244 227 278 305 316 285 98 90 86 66 86 96 84 84 91 96 104 106 115 107 107 105 96 97 94 82 87
334 340 336 328 327 326 326 329 346 8 23 23 14 9 304 289 249 160 329 327 72 49 49 50 39 39 36 41 69 78 70 87 94 105 104 105 118 109 101 63 70 109 122
341 344 339 339 339 339 345 352 351 349 10 20 21 20 31 40 52 62 75 62 51 61 61 48 45 35 31 25 31 45 43 27 51 82 107 118 112 110 122 126 126 121 117
346 351 350 344 348 350 355 360 4 7 3 2 13 21 28 41 46 45 49 52 41 40 42 42 51 41 22 23 19 23 32 36 41 46 57 65 69 81 98 122 122 125 125
352 356 353 352 354 358 1 5 10 11 15 8 11 17 15 26 47 43 41 46 37 34 32 39 26 29 28 30 20 18 26 28 26 36 40 38 34 34 38 42 36 70 91
351 358 10 357 352 0 7 10 11 11 13 16 11 21 8 20 30 30 34 32 36 29 23 27 28 26 27 21 10 12 27 26 25 28 31 29 23 21 30 16 21 3 31
348 353 12 352 352 1 6 12 10 11 13 14 12 11 32 33 30 31 29 29 29 28 20 17 20 25 19 20 18 16 11 21 26 20 19 24 22 13 9 360 359 9 356
357 353 5 358 343 358 8 7 10 12 14 13 8 8 23 26 27 28 25 24 19 20 19 11 14 18 15 13 11 10 11 12 11 5 0 360 4 359 346 345 344 338 324
354 360 354 356 357 349 2 9 9 9 9 11 8 8 13 15 16 20 18 13 16 12 8 8 9 12 11 10 7 6 359 355 351 337 337 347 340 342 343 335 333 323 318
348 355 355 351 355 354 356 1 4 6 4 5 5 7 7 4 5 7 6 4 6 358 1 1 6 5 358 355 351 352 342 327 339 329 326 324 318 315 310 309 302 298 293
341 346 353 351 346 346 348 353 355 355 355 360 358 358 353 353 355 353 357 359 351 346 352 347 350 347 348 339 339 337 335 341 329 318 305 277 275 280 276 280 285 285 279
331 331 328 338 340 342 342 343 342 346 346 345 344 342 340 339 336 340 345 346 338 333 334 333 329 329 328 324 323 324 326 321 306 299 330 349 308 299 290 280 279 278 275